Home > Weather > Pomona > Past weeks

Flag for U.S.A. Weather for the Past 2 Weeks in Pomona, California, U.S.A.

Now
50 °F

Clear.


Feels Like: 50 °F
Forecast: 54 / 87 °F
Wind: No wind

Location: Chino Airport

Current Time: Feb 10, 2016 at 3:45:36 AM

Latest Report: Feb 10, 2016 at 2:53 AM


Visibility: 9 mi

Pressure: 30.14 "Hg

Humidity: 59%

Dew point: 36 °F

Location of PomonaLocation

Historic Weather in Pomona — Graph

°F

Pomona Temperature Yesterday

Maximum temperature yesterday: 89 °F (at 1:53 PM)
Minimum temperature yesterday: 45 °F (at 4:53 AM)
Average temperature yesterday: 67 °F

High & Low Weather Summary for the Past Weeks

 TemperatureHumidityPressure
High89 °F (Feb 9, 1:53 PM)93% (Jan 30, 2:53 AM)30.37 "Hg (Jan 30, 2:53 AM)
Low32 °F (Feb 2, 5:53 AM)6% (Feb 7, 3:53 PM)29.59 "Hg (Jan 31, 1:53 PM)
Average57 °F47%30.14 "Hg
* Reported Jan 26 2:53 AM — Feb 10 2:53 AM, Pomona, Weather by CustomWeather, © 2016

Note: Actual official high and low records may vary slightly from our data, if they occured in-between our weather recording intervals... More about our weather records

Advertising

Pomona Weather History for the Previous 24 Hours

 ConditionsComfort  
Time TempWeatherWind HumidityBarometerVisibility
2:53 AM
Wed, Feb 10
50 °FClear.No wind59%30.14 "Hg9 mi
1:53 AM52 °FClear.3 mph57%30.14 "Hg9 mi
12:53 AM54 °FClear.5 mph51%30.14 "Hg10 mi
11:53 PM
Tue, Feb 9
56 °FClear.No wind46%30.13 "Hg10 mi
10:53 PM54 °FClear.No wind53%30.13 "Hg9 mi
9:53 PM57 °FClear.5 mph51%30.13 "Hg8 mi
8:53 PM60 °FClear.6 mph47%30.12 "Hg7 mi
7:53 PM67 °FClear.No wind25%30.10 "Hg10 mi
6:53 PM70 °FClear.No wind23%30.10 "Hg9 mi
5:53 PM76 °FPassing clouds.5 mph22%30.10 "Hg10 mi
4:53 PM87 °FPassing clouds.3 mph9%30.09 "Hg10 mi
3:53 PM88 °FPassing clouds.3 mph9%30.07 "Hg10 mi
2:53 PM89 °FPassing clouds.3 mph8%30.06 "Hg10 mi
1:53 PM89 °FSunny.5 mph10%30.07 "Hg10 mi
12:53 PM88 °FSunny.No wind10%30.10 "Hg10 mi
11:53 AM85 °FSunny.6 mph16%30.13 "Hg10 mi
10:53 AM83 °FSunny.3 mph19%30.16 "Hg8 mi
9:53 AM76 °FSunny.5 mph25%30.18 "Hg10 mi
8:53 AM66 °FSunny.3 mph39%30.19 "Hg10 mi
7:53 AM55 °FSunny.No wind53%30.18 "Hg10 mi
6:53 AM51 °FSunny.No wind50%30.17 "Hg10 mi
5:53 AM47 °FClear.No wind59%30.16 "Hg8 mi
4:53 AM45 °FClear.3 mph65%30.15 "Hg7 mi
3:53 AM55 °FClear.No wind39%30.14 "Hg10 mi
Weather by CustomWeather, © 2016

See weather overviewHow to use our weather pages